Location: Casco Millpond
(44.5581°N, 87.6111°W)
Time: 22:33:28
(UTC+00:00)

SMAP - Pass Details

Date: 16 January 2026
Orbit: 681 x 683 km, 98.1° (Epoch: 11 February)

Event Time Altitude Azimuth Distance (km) Brightness Sun altitude
Rises 23:20:36 0° 170° (S) 3,031 6.6 -7.7°
Reaches altitude 10° 23:22:50 10° 173° (S) 2,120 5.8 -8.1°
Maximum altitude 23:27:28 72° 257° (WSW) 720 3.4 -8.8°
Drops below altitude 10° 23:32:08 10° 343° (NNW) 2,136 5.6 -9.6°
Sets 23:34:23 0° 345° (NNW) 3,056 6.4 -10.0°
